{"data":{"norad_id":37393,"intl_designator":"2011-016B","name":"YAHSAT 1A","alt_names":[],"object_type":"PAYLOAD","status":"ACTIVE","operator":null,"country":"UAE","launch_date":"2011-04-22","launch_site_code":"FRGUI","launch_vehicle":null,"mission":null,"orbit_class":"UNKNOWN","rcs_meters":31.6228,"size_class":null,"mass_kg":null,"dimensions":null,"purposes":["comms"],"wikipedia_slug":null,"has_3d_model":false,"image_url":null,"decayed_at":null,"tle_current":{"epoch":"2026-09-19T17:24:38.481696Z","epoch_age_seconds":85239,"freshness":"FRESH","line1":"1 37393U 11016B   26262.72544539  .00000097  00000+0  00000+0 0  9995","line2":"2 37393   0.0092 161.1573 0002207 358.4974 152.6510  1.00272267 43355","mean_motion":1.00272267,"eccentricity":0.0002207,"inclination_deg":0.0092,"raan_deg":161.1573,"arg_perigee_deg":358.4974,"mean_anomaly_deg":152.651,"bstar":0,"rev_number":4335,"period_min":1436.0900008374,"perigee_km":35777.154113112,"apogee_km":35795.765566157,"semimajor_km":42164.596839635,"source":"CELESTRAK","updated_at":"2026-09-20T09:00:35.168018Z"}}}